Location: Linz
(48.3300°N, 14.3000°E)
Time: 04:42:54
(UTC+01:00)

Vanguard 3 - Visible Passes

Search period start: 23 November 2017 00:00
Search period end: 03 December 2017 00:00
Orbit: 509 x 3263 km, 33.3° (Epoch: 22 November)

Date Brightness Start Highest point End Pass type
(mag) Time Alt. Az. Time Alt. Az. Time Alt. Az.
23 Nov 9.7 18:22:18 10° SSW 18:29:25 29° SSE 18:34:36 22° ESE visible
23 Nov 9.7 20:31:42 10° WSW 20:39:10 39° SSW 20:39:10 39° SSW visible
23 Nov 10.9 22:43:14 10° WSW 22:43:44 12° WSW 22:43:44 12° WSW visible
24 Nov 9.9 17:11:10 10° S 17:16:08 18° SE 17:22:54 10° ESE visible
24 Nov 9.6 19:18:58 10° SW 19:27:08 37° SSE 19:29:22 34° SE visible
24 Nov 10.2 21:29:28 10° WSW 21:33:56 27° SW 21:33:56 27° SW visible
25 Nov 9.6 18:06:50 10° SSW 18:13:20 28° SSE 18:19:34 18° ESE visible
25 Nov 9.6 20:16:16 10° WSW 20:24:08 38° S 20:24:08 38° S visible
25 Nov 10.8 22:27:46 10° WSW 22:28:42 13° WSW 22:28:42 13° WSW visible
26 Nov 9.8 16:55:36 10° S 17:00:06 18° SE 17:06:13 10° ESE visible
26 Nov 9.5 19:03:36 10° SW 19:11:02 35° SSE 19:14:21 30° SE visible
26 Nov 10.1 21:14:04 10° WSW 21:18:55 28° SW 21:18:55 28° SW visible
27 Nov 9.5 17:51:27 10° SSW 17:57:20 27° SSE 18:04:34 14° ESE visible
27 Nov 9.6 20:00:57 10° WSW 20:09:07 36° S 20:09:09 36° S visible
27 Nov 10.7 22:12:27 10° WSW 22:13:43 14° WSW 22:13:43 14° WSW visible
28 Nov 9.7 16:40:08 10° S 16:44:10 17° SSE 16:49:36 10° ESE visible
28 Nov 9.4 18:48:19 10° SW 18:55:02 33° S 18:59:25 25° SE visible
28 Nov 10.0 20:58:47 10° WSW 21:03:59 27° SW 21:03:59 27° SW visible
29 Nov 9.4 17:36:10 10° SW 17:41:27 26° SSE 17:49:29 10° ESE visible
29 Nov 9.6 19:45:43 10° WSW 19:53:04 33° S 19:54:17 32° S visible
29 Nov 10.7 21:57:22 10° WSW 21:58:52 14° WSW 21:58:52 14° WSW visible
30 Nov 9.4 18:33:06 10° SW 18:39:09 30° S 18:44:38 19° SE visible
30 Nov 10.0 20:43:40 10° WSW 20:49:12 26° SSW 20:49:12 26° SSW visible
01 Dec 9.4 17:20:56 10° SW 17:25:40 24° SSE 17:32:40 10° ESE visible
01 Dec 9.7 19:30:35 10° WSW 19:37:08 29° S 19:39:36 26° SSE visible
01 Dec 10.6 21:42:34 10° WSW 21:44:11 14° SW 21:44:11 14° SW visible
02 Dec 9.4 18:17:59 10° SW 18:23:21 27° S 18:30:03 13° SE visible
02 Dec 10.0 20:28:43 10° WSW 20:34:39 23° SSW 20:34:39 23° SSW visible
